GW4608 Weather Reports


time (UTC)temp
C
wind
direction
speed
KPH
gust
KPH
rain 1hr
cm
rain 24hr
cm
rain mn
cm
humidity
%
barometer
mb
20260509212642 20 216 0.0 1.6 0.00 0.00 0.00 58 1009.6
20260509212139 19 158 3.2 3.2 0.00 0.00 0.00 59 1009.8
20260509211635 19 150 1.6 3.2 0.00 0.00 0.00 62 1009.6
20260509211132 18 113 0.0 3.2 0.00 0.00 0.00 65 1009.8
20260509210628 18 121 0.0 3.2 0.00 0.00 0.00 64 1010.0
20260509210121 18 118 1.6 3.2 0.00 0.00 0.00 63 1009.9
20260509205620 18 105 1.6 3.2 0.00 0.00 0.00 65 1010.0
20260509205115 18 11 1.6 4.8 0.00 0.00 0.00 66 1010.0
20260509204611 18 82 0.0 1.6 0.00 0.00 0.00 65 1010.1
20260509204108 17 96 3.2 3.2 0.00 0.00 0.00 68 1010.2
20260509203604 17 100 0.0 3.2 0.00 0.00 0.00 69 1010.2
20260509203103 17 103 1.6 3.2 0.00 0.00 0.00 70 1010.0
20260509202602 17 119 1.6 3.2 0.00 0.00 0.00 70 1010.1
20260509202058 17 99 1.6 3.2 0.00 0.00 0.00 69 1010.2
20260509201559 16 102 1.6 3.2 0.00 0.00 0.00 71 1010.4
20260509201057 16 99 1.6 3.2 0.00 0.00 0.00 71 1010.1
20260509200556 17 115 0.0 1.6 0.00 0.00 0.00 70 1010.0
20260509200053 17 206 0.0 0.0 0.00 0.00 0.00 71 1010.1
20260509195548 17 293 0.0 0.0 0.00 0.00 0.00 71 1010.0
20260509195043 17 237 0.0 0.0 0.00 0.00 0.00 70 1010.4
20260509194538 17 63 0.0 1.6 0.00 0.00 0.00 69 1010.1
20260509194036 17 199 0.0 0.0 0.00 0.00 0.00 69 1010.0
20260509193536 17 162 0.0 0.0 0.00 0.00 0.00 68 1010.0
20260509193033 17 106 0.0 1.6 0.00 0.00 0.00 67 1010.1
20260509192529 17 331 0.0 0.0 0.00 0.00 0.00 67 1010.2
20260509192025 17 330 0.0 1.6 0.00 0.00 0.00 68 1010.1
20260509191519 18 181 0.0 0.0 0.00 0.00 0.00 66 1010.1
20260509191015 17 2 0.0 0.0 0.00 0.00 0.00 68 1010.0
20260509190512 17 355 0.0 1.6 0.00 0.00 0.00 69 1010.2
20260509190010 17 22 1.6 3.2 0.00 0.00 0.00 68 1010.1
20260509185507 17 71 1.6 3.2 0.00 0.00 0.00 66 1010.1
20260509185004 17 17 0.0 3.2 0.00 0.00 0.00 66 1010.2
20260509184502 18 20 3.2 4.8 0.00 0.00 0.00 63 1010.4
20260509183958 18 70 0.0 1.6 0.00 0.00 0.00 62 1010.2
20260509183458 18 100 0.0 3.2 0.00 0.00 0.00 63 1010.2
20260509182955 18 94 0.0 1.6 0.00 0.00 0.00 66 1010.4
20260509182451 18 25 0.0 1.6 0.00 0.00 0.00 66 1010.5
20260509181949 18 53 0.0 1.6 0.00 0.00 0.00 64 1010.6
20260509181447 17 25 1.6 1.6 0.00 0.00 0.00 67 1010.7
20260509180944 17 65 0.0 0.0 0.00 0.00 0.00 70 1010.8
20260509180439 16 9 1.6 3.2 0.00 0.00 0.00 66 1010.7
20260509175936 17 19 1.6 1.6 0.00 0.00 0.00 70 1010.7
20260509175433 17 13 3.2 4.8 0.00 0.00 0.00 66 1010.8
20260509174929 17 51 0.0 1.6 0.00 0.00 0.00 68 1010.7
20260509174425 17 111 0.0 1.6 0.00 0.00 0.00 68 1010.7
20260509173921 17 97 3.2 3.2 0.00 0.00 0.00 67 1010.8
20260509173421 16 32 0.0 0.0 0.00 0.00 0.00 69 1011.0
20260509172918 16 341 1.6 3.2 0.00 0.00 0.00 69 1010.8
20260509172414 16 21 0.0 3.2 0.00 0.00 0.00 72 1011.0
20260509171910 16 21 1.6 3.2 0.00 0.00 0.00 74 1011.3
20260509171407 16 329 1.6 3.2 0.00 0.00 0.00 73 1011.2
20260509170903 15 64 0.0 1.6 0.00 0.00 0.00 76 1011.4
20260509170358 15 1 0.0 1.6 0.00 0.00 0.00 74 1011.4
20260509165854 15 348 0.0 0.0 0.00 0.00 0.00 77 1011.4
20260509165348 15 4 0.0 1.6 0.00 0.00 0.00 77 1011.4
20260509164844 15 8 0.0 1.6 0.00 0.00 0.00 76 1011.4
20260509164341 15 7 0.0 0.0 0.00 0.00 0.00 78 1011.6
20260509163837 15 11 3.2 3.2 0.00 0.00 0.00 76 1011.5
20260509163328 15 4 0.0 1.6 0.00 0.00 0.00 75 1011.6
20260509162827 15 348 1.6 3.2 0.00 0.00 0.00 77 1011.7
20260509162325 15 12 0.0 3.2 0.00 0.00 0.00 79 1011.5
20260509161822 15 11 0.0 3.2 0.00 0.00 0.00 79 1011.8
20260509161319 15 333 0.0 1.6 0.00 0.00 0.00 76 1012.0
20260509160814 14 226 0.0 0.0 0.00 0.00 0.00 76 1012.0
20260509160310 14 227 0.0 0.0 0.00 0.00 0.00 76 1012.0
20260509155806 14 227 0.0 0.0 0.00 0.00 0.00 78 1012.0
20260509155306 14 227 0.0 1.6 0.00 0.00 0.00 80 1012.1
20260509154758 14 338 0.0 1.6 0.00 0.00 0.00 78 1012.2
20260509154256 14 9 0.0 1.6 0.00 0.00 0.00 76 1012.2
20260509153752 14 8 0.0 0.0 0.00 0.00 0.00 79 1012.2
20260509153243 14 11 3.2 4.8 0.00 0.00 0.00 77 1012.2
20260509152740 14 355 1.6 1.6 0.00 0.00 0.00 78 1012.1
20260509152237 13 341 1.6 4.8 0.00 0.00 0.00 77 1012.0
20260509151733 14 358 1.6 1.6 0.00 0.00 0.00 76 1011.9
20260509151230 14 3 1.6 3.2 0.00 0.00 0.00 77 1012.3
20260509150727 13 344 1.6 3.2 0.00 0.00 0.00 76 1012.2
20260509150226 13 339 0.0 3.2 0.00 0.00 0.00 79 1012.3
20260509145722 14 16 1.6 3.2 0.00 0.00 0.00 79 1012.4
20260509145217 14 102 0.0 0.0 0.00 0.00 0.00 77 1012.2
20260509144714 13 44 0.0 1.6 0.00 0.00 0.00 78 1012.3
20260509144211 14 7 1.6 3.2 0.00 0.00 0.00 79 1012.3
20260509143708 13 355 0.0 0.0 0.00 0.00 0.00 81 1012.4
20260509143205 13 349 0.0 1.6 0.00 0.00 0.00 79 1012.3
20260509142700 13 332 1.6 1.6 0.00 0.00 0.00 79 1012.2
20260509142157 12 350 1.6 3.2 0.00 0.00 0.00 79 1012.1
20260509141653 13 3 0.0 1.6 0.00 0.00 0.00 80 1012.4
20260509141150 12 5 0.0 0.0 0.00 0.00 0.00 80 1012.4
20260509140647 12 345 0.0 3.2 0.00 0.00 0.00 81 1012.4
20260509140144 12 345 1.6 1.6 0.00 0.00 0.00 83 1012.3
20260509135641 12 171 0.0 0.0 0.00 0.00 0.00 85 1012.4
20260509135140 12 169 0.0 0.0 0.00 0.00 0.00 86 1012.4
20260509134636 11 169 0.0 0.0 0.00 0.00 0.00 87 1012.4
20260509134133 11 168 0.0 1.6 0.00 0.00 0.00 88 1012.5
20260509133631 11 168 1.6 1.6 0.00 0.00 0.00 88 1012.4
20260509133128 11 169 0.0 0.0 0.00 0.00 0.00 88 1012.5
20260509132626 11 225 1.6 1.6 0.00 0.00 0.00 87 1012.5
20260509132124 11 271 0.0 0.0 0.00 0.00 0.00 86 1012.5
20260509131620 11 271 0.0 1.6 0.00 0.00 0.00 85 1012.3
20260509131117 11 293 1.6 3.2 0.00 0.00 0.00 86 1012.4
20260509130613 11 276 1.6 3.2 0.00 0.00 0.00 88 1012.4
20260509130109 11 296 1.6 1.6 0.00 0.00 0.00 89 1012.2
20260509125606 11 350 0.0 0.0 0.00 0.00 0.00 87 1012.1
20260509125102 11 350 0.0 0.0 0.00 0.00 0.00 86 1012.3
20260509124559 11 351 0.0 1.6 0.00 0.00 0.00 86 1012.0
20260509124056 11 253 0.0 0.0 0.00 0.00 0.00 86 1012.3
20260509123554 11 288 0.0 0.0 0.00 0.00 0.00 83 1012.2
20260509123050 11 287 0.0 0.0 0.00 0.00 0.00 85 1012.3
20260509122546 11 288 0.0 0.0 0.00 0.00 0.00 85 1012.3
20260509122044 11 288 0.0 0.0 0.00 0.00 0.00 85 1012.3
20260509121540 11 288 0.0 0.0 0.00 0.00 0.00 85 1012.1
20260509121038 11 287 0.0 0.0 0.00 0.00 0.00 85 1012.3
20260509120536 10 287 0.0 0.0 0.00 0.00 0.00 84 1012.4
20260509120034 10 288 1.6 1.6 0.00 0.00 0.00 85 1012.3
20260509115531 10 287 0.0 0.0 0.00 0.00 0.00 87 1012.5
20260509115028 10 288 1.6 1.6 0.00 0.00 0.00 86 1012.3
20260509114526 10 303 1.6 1.6 0.00 0.00 0.00 86 1012.5
20260509114025 10 65 0.0 0.0 0.00 0.00 0.00 86 1012.4
20260509113523 10 57 1.6 1.6 0.00 0.00 0.00 84 1012.4
20260509113021 10 11 0.0 0.0 0.00 0.00 0.00 83 1012.2
20260509112517 10 11 0.0 0.0 0.00 0.00 0.00 84 1012.2
20260509112014 10 8 1.6 3.2 0.00 0.00 0.00 84 1012.0
20260509111511 10 350 1.6 1.6 0.00 0.00 0.00 85 1012.1
20260509111008 10 13 1.6 3.2 0.00 0.00 0.00 85 1011.9
20260509110505 10 21 0.0 0.0 0.00 0.00 0.00 81 1012.1
20260509110002 10 21 0.0 0.0 0.00 0.00 0.00 77 1012.0
20260509105501 10 21 0.0 0.0 0.00 0.00 0.00 79 1011.9
20260509104958 10 342 0.0 1.6 0.00 0.00 0.00 81 1012.0
20260509104454 10 158 0.0 0.0 0.00 0.00 0.00 81 1011.8
20260509103951 10 225 1.6 1.6 0.00 0.00 0.00 82 1011.9
20260509103449 10 357 0.0 0.0 0.00 0.00 0.00 81 1011.8
20260509102947 10 356 0.0 1.6 0.00 0.00 0.00 84 1012.0
20260509102444 10 358 3.2 4.8 0.00 0.00 0.00 81 1011.7
20260509101940 10 352 0.0 1.6 0.00 0.00 0.00 78 1011.4
20260509101436 10 354 1.6 1.6 0.00 0.00 0.00 80 1011.4
20260509100934 10 355 1.6 3.2 0.00 0.00 0.00 82 1011.5
20260509100431 10 224 0.0 1.6 0.00 0.00 0.00 82 1011.7
20260509095927 10 223 0.0 0.0 0.00 0.00 0.00 81 1011.7
20260509095424 10 222 0.0 1.6 0.00 0.00 0.00 81 1011.5
20260509094921 10 260 0.0 0.0 0.00 0.00 0.00 81 1011.7
20260509094418 10 265 1.6 3.2 0.00 0.00 0.00 81 1011.7
20260509093916 10 297 0.0 1.6 0.00 0.00 0.00 83 1011.9
20260509093413 10 253 0.0 1.6 0.00 0.00 0.00 84 1011.8
20260509092911 10 287 0.0 0.0 0.00 0.00 0.00 83 1011.8
20260509092409 10 242 0.0 0.0 0.00 0.00 0.00 83 1011.9
20260509091907 10 15 0.0 0.0 0.00 0.00 0.00 85 1011.9
20260509091403 10 16 0.0 1.6 0.00 0.00 0.00 85 1011.9
20260509090901 10 18 0.0 0.0 0.00 0.00 0.00 84 1011.9
20260509090358 10 19 3.2 3.2 0.00 0.00 0.00 82 1011.7
20260509085855 11 22 1.6 3.2 0.00 0.00 0.00 78 1011.9
20260509085353 12 17 1.6 1.6 0.00 0.00 0.00 75 1011.7
20260509084848 13 179 0.0 3.2 0.00 0.00 0.00 62 1011.7
20260509084346 13 202 1.6 3.2 0.00 0.00 0.00 57 1011.7
20260509083843 13 209 4.8 4.8 0.00 0.00 0.00 57 1011.8
20260509083340 13 210 0.0 1.6 0.00 0.00 0.00 61 1011.6
20260509082836 13 208 0.0 1.6 0.00 0.00 0.00 60 1011.6
20260509082333 13 225 3.2 4.8 0.00 0.00 0.00 59 1011.4
20260509081831 13 247 0.0 3.2 0.00 0.00 0.00 57 1011.4
20260509081327 13 245 0.0 0.0 0.00 0.00 0.00 60 1011.6
20260509080826 13 265 1.6 3.2 0.00 0.00 0.00 59 1011.5
20260509080323 13 264 0.0 1.6 0.00 0.00 0.00 61 1011.6
20260509075822 13 251 3.2 4.8 0.00 0.00 0.00 61 1011.5
20260509075318 13 233 3.2 6.4 0.00 0.00 0.00 59 1011.6
20260509074815 13 255 3.2 4.8 0.00 0.00 0.00 60 1011.6
20260509074313 12 253 1.6 4.8 0.00 0.00 0.00 64 1011.8
20260509073809 10 223 0.0 0.0 0.00 0.00 0.00 73 1011.6
20260509073305 10 148 0.0 0.0 0.00 0.00 0.00 79 1011.7
20260509072802 10 183 0.0 0.0 0.00 0.00 0.00 82 1011.8
20260509072259 10 308 0.0 0.0 0.00 0.00 0.00 83 1011.7
20260509071755 10 318 0.0 0.0 0.00 0.00 0.00 84 1011.7
20260509071252 9 122 0.0 0.0 0.00 0.00 0.00 84 1011.6
20260509070749 10 117 0.0 0.0 0.00 0.00 0.00 84 1011.6
20260509070246 10 353 0.0 0.0 0.00 0.00 0.00 83 1011.8
20260509065742 9 354 0.0 1.6 0.00 0.00 0.00 84 1011.9
20260509065239 9 306 0.0 0.0 0.00 0.00 0.00 83 1011.6
20260509064735 9 306 1.6 1.6 0.00 0.00 0.00 83 1011.7
20260509064233 9 306 0.0 0.0 0.00 0.00 0.00 82 1011.8
20260509063730 9 305 0.0 0.0 0.00 0.00 0.00 84 1011.7
20260509063226 10 305 0.0 0.0 0.00 0.00 0.00 82 1011.8
20260509062723 10 278 0.0 0.0 0.00 0.00 0.00 78 1011.8
20260509062220 10 355 0.0 1.6 0.00 0.00 0.00 79 1011.9
20260509061717 10 357 0.0 0.0 0.00 0.00 0.00 82 1011.9
20260509061215 10 357 0.0 0.0 0.00 0.00 0.00 82 1011.9
20260509060712 10 12 0.0 0.0 0.00 0.00 0.00 80 1011.9
20260509060209 10 353 1.6 1.6 0.00 0.00 0.00 80 1012.1
20260509055704 11 103 1.6 1.6 0.00 0.00 0.00 78 1012.2
20260509055201 11 276 1.6 3.2 0.00 0.00 0.00 70 1012.1
20260509054657 11 281 0.0 1.6 0.00 0.00 0.00 79 1012.0
20260509054154 11 280 1.6 1.6 0.00 0.00 0.00 79 1012.3
20260509053653 11 311 1.6 1.6 0.00 0.00 0.00 79 1012.1
20260509053149 11 98 1.6 3.2 0.00 0.00 0.00 79 1011.9
20260509052647 11 285 0.0 0.0 0.00 0.00 0.00 76 1012.4
20260509052144 11 277 0.0 0.0 0.00 0.00 0.00 77 1012.3
20260509051642 11 275 0.0 1.6 0.00 0.00 0.00 78 1012.5
20260509051139 11 253 0.0 0.0 0.00 0.00 0.00 78 1012.6
20260509050636 11 350 0.0 0.0 0.00 0.00 0.00 76 1012.5
20260509050132 11 231 0.0 0.0 0.00 0.00 0.00 78 1012.5
20260509045631 11 228 0.0 0.0 0.00 0.00 0.00 77 1012.4
20260509045127 11 228 0.0 1.6 0.00 0.00 0.00 76 1012.6
20260509044624 11 295 1.6 1.6 0.00 0.00 0.00 75 1012.5
20260509044122 11 265 0.0 1.6 0.00 0.00 0.00 74 1012.3
20260509043618 11 267 1.6 1.6 0.00 0.00 0.00 73 1012.5
20260509043113 11 242 0.0 1.6 0.00 0.00 0.00 77 1012.4
20260509042610 11 260 1.6 1.6 0.00 0.00 0.00 75 1012.3
20260509042106 11 215 0.0 1.6 0.00 0.00 0.00 76 1012.4
20260509041603 11 249 0.0 1.6 0.00 0.00 0.00 76 1012.4
20260509041101 11 246 1.6 1.6 0.00 0.00 0.00 78 1012.4
20260509040559 11 138 1.6 1.6 0.00 0.00 0.00 79 1012.5
20260509040055 12 273 0.0 0.0 0.00 0.00 0.00 74 1012.6
20260509035552 12 329 3.2 3.2 0.00 0.00 0.00 64 1012.5
20260509035049 12 321 3.2 3.2 0.00 0.00 0.00 64 1012.4
20260509034547 12 311 1.6 3.2 0.00 0.00 0.00 70 1012.6
20260509034044 12 269 1.6 1.6 0.00 0.00 0.00 74 1012.5
20260509033541 12 158 0.0 0.0 0.00 0.00 0.00 73 1012.5
20260509033039 11 166 0.0 1.6 0.00 0.00 0.00 74 1012.5
20260509032536 11 161 1.6 3.2 0.00 0.00 0.00 76 1012.6
20260509032032 12 304 0.0 1.6 0.00 0.00 0.00 69 1012.6
20260509031530 12 320 3.2 3.2 0.00 0.00 0.00 67 1012.4
20260509031027 12 341 3.2 3.2 0.00 0.00 0.00 72 1012.5
20260509030525 12 260 0.0 1.6 0.00 0.00 0.00 74 1012.4
20260509030021 12 261 1.6 1.6 0.00 0.00 0.00 75 1012.5
20260509025517 12 323 0.0 0.0 0.00 0.00 0.00 71 1012.5
20260509025013 12 323 0.0 0.0 0.00 0.00 0.00 69 1012.5
20260509024509 12 323 0.0 0.0 0.00 0.00 0.00 68 1012.7
20260509024006 12 324 0.0 0.0 0.00 0.00 0.00 70 1012.7
20260509023503 12 285 1.6 1.6 0.00 0.00 0.00 64 1012.6
20260509023000 12 285 0.0 0.0 0.00 0.00 0.00 66 1012.7
20260509022457 12 285 0.0 0.0 0.00 0.00 0.00 67 1012.6
20260509021955 12 285 0.0 0.0 0.00 0.00 0.00 70 1012.6
20260509021452 12 285 0.0 0.0 0.00 0.00 0.00 70 1012.5
20260509020948 12 285 0.0 0.0 0.00 0.00 0.00 66 1012.7
20260509020447 13 285 0.0 1.6 0.00 0.00 0.00 68 1012.6
20260509015943 12 248 0.0 1.6 0.00 0.00 0.00 65 1012.5
20260509015443 12 247 0.0 0.0 0.00 0.00 0.00 70 1012.5
20260509014938 12 227 0.0 0.0 0.00 0.00 0.00 67 1012.7
20260509014435 12 245 1.6 1.6 0.00 0.00 0.00 66 1012.5
20260509013931 12 322 0.0 0.0 0.00 0.00 0.00 64 1012.5
20260509013428 13 1 1.6 3.2 0.00 0.00 0.00 65 1012.3
20260509012924 13 296 3.2 3.2 0.00 0.00 0.00 62 1012.1
20260509012421 13 264 0.0 0.0 0.00 0.00 0.00 69 1012.2
20260509011918 13 264 0.0 1.6 0.00 0.00 0.00 63 1012.2
20260509011415 12 262 0.0 0.0 0.00 0.00 0.00 69 1012.1
20260509010913 13 262 1.6 1.6 0.00 0.00 0.00 62 1012.1
20260509010410 13 262 0.0 1.6 0.00 0.00 0.00 63 1012.2
20260509005907 13 263 0.0 0.0 0.00 0.00 0.00 61 1012.0
20260509005405 13 266 0.0 0.0 0.00 0.00 0.00 59 1012.0
20260509004905 13 266 0.0 1.6 0.00 0.00 0.00 61 1012.2
20260509004402 13 245 1.6 1.6 0.00 0.00 0.00 60 1012.0
20260509003900 14 280 0.0 0.0 0.00 0.00 0.00 57 1012.1
20260509003357 14 280 1.6 1.6 0.00 0.00 0.00 55 1012.0
20260509002854 15 287 1.6 3.2 0.00 0.00 0.00 55 1012.0
20260509002352 15 288 1.6 3.2 0.00 0.00 0.00 49 1012.1
20260509001849 15 274 0.0 1.6 0.00 0.00 0.00 49 1012.1
20260509001345 16 274 0.0 3.2 0.00 0.00 0.00 47 1012.1
20260509000842 16 305 0.0 3.2 0.00 0.00 0.00 42 1012.1
20260509000340 16 280 1.6 3.2 0.00 0.00 0.00 44 1012.0
20260508235836 16 277 1.6 3.2 0.00 0.00 0.00 46 1012.0
20260508235333 17 275 3.2 3.2 0.00 0.00 0.00 46 1011.9
20260508234830 17 260 1.6 1.6 0.00 0.00 0.00 41 1011.8
20260508234327 18 293 1.6 3.2 0.00 0.00 0.00 40 1012.1
20260508233825 18 278 1.6 3.2 0.00 0.00 0.00 40 1011.8
20260508233324 19 302 4.8 4.8 0.00 0.00 0.00 37 1011.9
20260508232821 20 240 0.0 1.6 0.00 0.00 0.00 38 1011.7
20260508232317 20 288 3.2 3.2 0.00 0.00 0.00 37 1011.8
20260508231816 20 317 4.8 4.8 0.00 0.00 0.00 37 1011.9
20260508231311 20 276 3.2 6.4 0.00 0.00 0.00 34 1011.4
20260508230808 20 269 3.2 9.7 0.00 0.00 0.00 37 1011.6
20260508230305 20 311 4.8 6.4 0.00 0.00 0.00 36 1011.6
20260508225802 20 279 4.8 11.3 0.00 0.00 0.00 38 1011.7
20260508225258 20 311 6.4 11.3 0.00 0.00 0.00 36 1011.7
20260508224757 20 269 4.8 9.7 0.00 0.00 0.00 34 1011.9
20260508224254 20 270 3.2 4.8 0.00 0.00 0.00 35 1011.8
20260508223752 20 280 1.6 14.5 0.00 0.00 0.00 37 1011.7
20260508223249 21 301 4.8 6.4 0.00 0.00 0.00 35 1011.9
20260508222746 21 216 3.2 9.7 0.00 0.00 0.00 35 1011.7
20260508222243 20 294 1.6 4.8 0.00 0.00 0.00 34 1011.9
20260508221739 20 290 6.4 11.3 0.00 0.00 0.00 37 1011.8
20260508221235 20 269 6.4 16.1 0.00 0.00 0.00 37 1011.8
20260508220731 20 318 8.0 11.3 0.00 0.00 0.00 36 1011.7
20260508220229 20 328 4.8 12.9 0.00 0.00 0.00 35 1011.8
20260508215725 20 300 4.8 9.7 0.00 0.00 0.00 36 1012.0
20260508215221 20 241 1.6 11.3 0.00 0.00 0.00 38 1011.7
20260508214719 20 275 11.3 14.5 0.00 0.00 0.00 35 1011.7
20260508214216 21 232 4.8 9.7 0.00 0.00 0.00 33 1012.0
20260508213712 20 264 4.8 12.9 0.00 0.00 0.00 35 1012.1
20260508213209 20 307 6.4 9.7 0.00 0.00 0.00 35 1012.2